カタログに戻る

DELTA 2 R/B(2)

運用中GTO
NORAD 25136·ROCKET BODY·🇺🇸 United States

打ち上げ Jan 10, 1998 から Cape Canaveral Space Force Station

Loading…

TLE

経年Source: Space-Track

元期: Sep 14, 2026, 14:04 UTC

1 25136U 98002C   26257.58619440 -.00000064  00000-0  00000-0 0  9996
2 25136  23.4984  76.0399 6983358 336.6824 270.6768  2.19857407230371

AllMySatでDELTA 2 R/B(2)をリアルタイム追跡

Download on the App Store